CW7218 Weather Reports


time (UTC)temp
F
wind
direction
speed
knots
gust
knots
rain 1hr
in
rain 24hr
in
rain mn
in
humidity
%
barometer
mb
20260502185017 57 68 2.6 4.3 0.00 0.22 0.22 79 1018.2
20260502184017 57 45 2.6 4.3 0.00 0.22 0.22 80 1018.1
20260502183017 57 23 0.9 3.5 0.00 0.22 0.22 78 1018.3
20260502182017 57 45 1.7 3.5 0.00 0.22 0.22 78 1018.3
20260502181017 57 45 2.6 3.5 0.00 0.22 0.22 77 1018.2
20260502164017 58 45 2.6 4.3 0.00 0.22 0.22 75 1019.0
20260502163017 58 45 3.5 6.1 0.00 0.22 0.22 75 1019.3
20260502162017 58 68 4.3 7.0 0.00 0.22 0.22 74 1019.3
20260502161017 58 45 3.5 6.1 0.00 0.22 0.22 74 1019.3
20260502152017 58 45 3.5 6.1 0.00 0.22 0.22 72 1019.4
20260502151017 58 68 3.5 6.1 0.00 0.22 0.22 73 1019.5
20260502123016 54 45 5.2 7.8 0.00 0.22 0.22 83 1021.0
20260502122016 54 68 3.5 7.8 0.00 0.22 0.22 82 1021.2
20260502121016 54 23 5.2 7.8 0.00 0.22 0.22 81 1021.2
20260502115016 54 23 5.2 10.4 0.00 0.22 0.22 80 1021.1
20260502114016 54 23 3.5 5.2 0.00 0.22 0.22 79 1021.3
20260502113016 54 315 2.6 6.1 0.00 0.22 0.22 76 1021.6
20260502112016 54 270 2.6 7.0 0.00 0.22 0.22 75 1021.5
20260502111016 54 0.0 0.0 0.00 0.22 0.22 89 1021.6
20260502110016 54 0.0 0.0 0.00 0.22 0.22 90 1021.9
20260502105036 54 315 0.9 1.7 0.00 0.22 0.22 90 1021.9
20260502104016 53 315 0.9 2.6 0.00 0.22 0.22 90 1022.0
20260502103016 53 180 0.9 2.6 0.01 0.22 0.22 91 1022.0
20260502102016 53 158 0.9 2.6 0.02 0.22 0.22 91 1022.0
20260502101016 53 180 1.7 2.6 0.03 0.22 0.22 91 1022.0
20260502091016 53 158 1.7 2.6 0.03 0.19 0.19 91 1022.3
20260502071015 53 248 1.7 3.5 0.02 0.02 0.02 87 1022.1
20260502070015 53 158 1.7 3.5 0.02 0.02 0.02 85 1022.1
20260502065015 54 68 0.9 2.6 0.02 0.02 0.02 84 1022.2
20260502064016 54 45 2.6 4.3 0.02 0.02 0.02 81 1022.1
20260502063716 55 90 1.7 5.2 0.01 0.01 0.01 77 1022.2
20260502011027 54 23 5.2 7.8 0.00 0.00 0.00 79 1022.8
20260502010026 54 45 3.5 6.1 0.00 0.00 0.00 79 1022.8
20260502005026 54 45 3.5 6.1 0.00 0.00 0.00 79 1023.0
20260502004026 54 90 1.7 4.3 0.00 0.00 0.00 78 1023.1
20260502003026 55 90 0.9 1.7 0.00 0.00 0.00 77 1023.4
20260502002026 55 0.0 1.7 0.00 0.00 0.00 76 1023.5
20260502001026 54 248 1.7 3.5 0.00 0.00 0.00 75 1023.6
20260502000026 54 248 0.9 2.6 0.00 0.00 0.00 76 1023.6
20260501235026 54 180 0.9 2.6 0.00 0.00 0.00 75 1023.6
20260501234026 55 0.0 1.7 0.00 0.00 0.00 76 1023.6
20260501233026 55 180 0.9 1.7 0.00 0.00 0.00 73 1023.8
20260501232026 55 0.0 1.7 0.00 0.00 0.00 75 1023.8
20260501231026 55 90 0.9 1.7 0.00 0.00 0.00 74 1023.7
20260501230026 55 68 1.7 3.5 0.00 0.00 0.00 72 1023.5
20260501225026 56 0 0.9 3.5 0.00 0.00 0.00 69 1023.4
20260501224026 56 0.0 1.7 0.00 0.00 0.00 70 1023.3
20260501223046 56 0.0 1.7 0.00 0.00 0.00 70 1023.3
20260501222026 56 203 0.9 2.6 0.00 0.00 0.00 69 1023.3
20260501221046 56 180 2.6 5.2 0.00 0.00 0.00 69 1023.3
20260501220046 57 248 3.5 6.1 0.00 0.00 0.00 69 1023.2
20260501215026 57 248 3.5 6.1 0.00 0.00 0.00 68 1023.2
20260501214026 57 248 4.3 7.8 0.00 0.00 0.00 68 1023.3
20260501213026 57 248 4.3 6.1 0.00 0.00 0.00 68 1023.1
20260501212026 58 315 2.6 5.2 0.00 0.00 0.00 67 1023.2
20260501211026 58 293 1.7 2.6 0.00 0.00 0.00 67 1023.2
20260501210026 58 248 1.7 3.5 0.00 0.00 0.00 67 1023.2
20260501205026 58 248 0.9 4.3 0.00 0.00 0.00 66 1023.3
20260501204026 58 315 1.7 3.5 0.00 0.00 0.00 66 1023.2
20260501203026 59 315 1.7 2.6 0.00 0.00 0.00 66 1022.8
20260501202026 59 338 1.7 3.5 0.00 0.00 0.00 66 1022.9
20260501201026 59 293 1.7 3.5 0.00 0.00 0.00 65 1022.9
20260501200026 59 315 2.6 5.2 0.00 0.00 0.00 65 1022.7
20260501195026 59 315 2.6 4.3 0.00 0.00 0.00 65 1022.6
20260501194025 60 315 2.6 4.3 0.00 0.00 0.00 65 1022.5
20260501193026 60 270 2.6 3.5 0.00 0.00 0.00 63 1022.4
20260501192046 60 270 2.6 4.3 0.00 0.00 0.00 63 1022.3
20260501191025 61 270 2.6 5.2 0.00 0.00 0.00 63 1022.1
20260501190026 61 248 1.7 3.5 0.00 0.00 0.00 63 1021.8